Time,TemperatureF,DewpointF,PressureIn,WindDirection,WindDirectionDegrees,WindSpeedMPH,WindSpeedGustMPH,Humidity,HourlyPrecipIn,Conditions,Clouds,dailyrainin,SoftwareType,DateUTC
2013-01-26 00:02:00,51.3,50.5,30.00,SE,134,0.0,4.0,97,0.00,,,0.00,Wunderground v.1.15,2013-01-26 08:02:00,
2013-01-26 00:08:00,51.6,51.1,30.00,SE,134,1.0,4.0,98,0.00,,,0.00,Wunderground v.1.15,2013-01-26 08:08:00,
2013-01-26 00:14:00,51.4,50.6,30.00,SE,134,0.0,4.0,97,0.00,,,0.00,Wunderground v.1.15,2013-01-26 08:14:00,
2013-01-26 00:19:00,51.4,50.9,30.00,SE,134,0.0,4.0,98,0.00,,,0.00,Wunderground v.1.15,2013-01-26 08:19:00,
2013-01-26 00:24:00,51.3,50.8,30.00,SE,134,0.0,4.0,98,0.00,,,0.00,Wunderground v.1.15,2013-01-26 08:24:00,
2013-01-26 00:30:00,50.9,50.1,30.00,SE,134,1.0,4.0,97,0.00,,,0.00,Wunderground v.1.15,2013-01-26 08:30:00,
2013-01-26 00:35:00,50.5,49.7,29.99,SE,133,1.0,4.0,97,0.00,,,0.00,Wunderground v.1.15,2013-01-26 08:35:00,
2013-01-26 00:40:00,50.0,49.2,29.99,SE,134,1.0,1.0,97,0.00,,,0.00,Wunderground v.1.15,2013-01-26 08:40:00,
2013-01-26 00:45:00,49.9,49.4,29.99,SE,134,1.0,4.0,98,0.00,,,0.00,Wunderground v.1.15,2013-01-26 08:45:00,
2013-01-26 00:50:00,49.9,49.4,29.99,SE,134,0.0,4.0,98,0.00,,,0.00,Wunderground v.1.15,2013-01-26 08:50:00,
2013-01-26 00:56:00,50.4,49.9,29.99,SE,134,0.0,4.0,98,0.00,,,0.00,Wunderground v.1.15,2013-01-26 08:56:00,
2013-01-26 01:01:00,50.4,49.9,29.99,SE,134,0.0,4.0,98,0.00,,,0.00,Wunderground v.1.15,2013-01-26 09:01:00,
2013-01-26 01:07:00,50.4,49.9,29.99,WNW,298,1.0,4.0,98,0.00,,,0.00,Wunderground v.1.15,2013-01-26 09:07:00,
2013-01-26 01:12:00,50.1,49.3,30.00,WNW,300,1.0,4.0,97,0.00,,,0.00,Wunderground v.1.15,2013-01-26 09:12:00,
2013-01-26 01:17:00,49.8,49.0,30.00,WNW,300,0.0,4.0,97,0.00,,,0.00,Wunderground v.1.15,2013-01-26 09:17:00,
2013-01-26 01:23:00,50.0,49.5,29.99,WNW,300,0.0,4.0,98,0.00,,,0.00,Wunderground v.1.15,2013-01-26 09:23:00,
2013-01-26 01:28:00,49.9,49.4,29.99,WNW,300,0.0,4.0,98,0.00,,,0.00,Wunderground v.1.15,2013-01-26 09:28:00,
2013-01-26 01:34:00,49.9,49.4,29.99,WNW,300,0.0,4.0,98,0.00,,,0.00,Wunderground v.1.15,2013-01-26 09:34:00,
2013-01-26 01:40:00,50.4,49.9,29.99,WNW,300,0.0,4.0,98,0.00,,,0.00,Wunderground v.1.15,2013-01-26 09:40:00,
2013-01-26 01:45:00,50.6,50.1,29.99,WNW,300,0.0,4.0,98,0.00,,,0.00,Wunderground v.1.15,2013-01-26 09:45:00,
2013-01-26 01:50:00,50.7,50.2,29.99,WNW,300,0.0,4.0,98,0.00,,,0.00,Wunderground v.1.15,2013-01-26 09:50:00,
2013-01-26 01:56:00,50.5,50.0,30.00,WNW,300,0.0,4.0,98,0.00,,,0.00,Wunderground v.1.15,2013-01-26 09:56:00,
2013-01-26 02:01:00,50.2,49.7,30.00,WNW,300,0.0,4.0,98,0.00,,,0.00,Wunderground v.1.15,2013-01-26 10:01:00,
2013-01-26 02:06:00,49.9,49.4,30.00,WNW,300,0.0,4.0,98,0.00,,,0.00,Wunderground v.1.15,2013-01-26 10:06:00,
2013-01-26 02:12:00,49.9,49.4,29.99,WNW,300,0.0,4.0,98,0.00,,,0.00,Wunderground v.1.15,2013-01-26 10:12:00,
2013-01-26 02:18:00,50.0,49.5,29.99,WNW,300,0.0,4.0,98,0.00,,,0.00,Wunderground v.1.15,2013-01-26 10:18:00,
2013-01-26 02:24:00,50.0,49.5,29.99,WNW,300,0.0,4.0,98,0.00,,,0.00,Wunderground v.1.15,2013-01-26 10:24:00,
2013-01-26 02:29:00,50.3,50.0,29.99,WNW,300,0.0,4.0,99,0.00,,,0.00,Wunderground v.1.15,2013-01-26 10:29:00,
2013-01-26 02:34:00,50.3,50.0,29.99,WNW,300,0.0,4.0,99,0.00,,,0.00,Wunderground v.1.15,2013-01-26 10:34:00,
2013-01-26 02:40:00,50.1,49.6,29.99,WNW,298,0.0,4.0,98,0.00,,,0.00,Wunderground v.1.15,2013-01-26 10:40:00,
2013-01-26 02:45:00,50.0,49.5,29.99,WNW,300,0.0,4.0,98,0.00,,,0.00,Wunderground v.1.15,2013-01-26 10:45:00,
2013-01-26 02:51:00,50.0,49.5,29.99,WNW,300,0.0,4.0,98,0.00,,,0.00,Wunderground v.1.15,2013-01-26 10:51:00,
2013-01-26 02:57:00,50.0,49.5,29.99,WNW,300,0.0,4.0,98,0.00,,,0.00,Wunderground v.1.15,2013-01-26 10:57:00,
2013-01-26 03:02:00,49.6,49.1,29.99,WNW,300,0.0,4.0,98,0.00,,,0.00,Wunderground v.1.15,2013-01-26 11:02:00,
2013-01-26 03:08:00,49.9,49.6,29.99,WNW,300,1.0,4.0,99,0.00,,,0.00,Wunderground v.1.15,2013-01-26 11:08:00,
2013-01-26 03:14:00,49.8,49.3,29.99,WNW,300,1.0,4.0,98,0.00,,,0.00,Wunderground v.1.15,2013-01-26 11:14:00,
2013-01-26 03:19:00,49.7,49.2,29.99,WNW,300,0.0,4.0,98,0.00,,,0.00,Wunderground v.1.15,2013-01-26 11:19:00,
2013-01-26 03:25:00,49.7,49.2,29.99,WNW,300,0.0,4.0,98,0.00,,,0.00,Wunderground v.1.15,2013-01-26 11:25:00,
2013-01-26 03:30:00,49.6,49.1,29.99,WNW,300,0.0,4.0,98,0.00,,,0.00,Wunderground v.1.15,2013-01-26 11:30:00,
2013-01-26 03:35:00,49.8,49.5,29.98,WNW,300,1.0,4.0,99,0.00,,,0.00,Wunderground v.1.15,2013-01-26 11:35:00,
2013-01-26 03:41:00,49.6,49.1,29.99,WNW,300,0.0,4.0,98,0.00,,,0.00,Wunderground v.1.15,2013-01-26 11:41:00,
2013-01-26 03:47:00,49.8,49.5,29.98,WNW,300,1.0,4.0,99,0.00,,,0.00,Wunderground v.1.15,2013-01-26 11:47:00,
2013-01-26 03:54:00,49.5,49.0,29.98,WNW,300,2.0,4.0,98,0.00,,,0.00,Wunderground v.1.15,2013-01-26 11:54:00,
2013-01-26 03:59:00,49.2,48.7,29.98,WNW,300,2.0,4.0,98,0.00,,,0.00,Wunderground v.1.15,2013-01-26 11:59:00,
2013-01-26 04:04:00,49.1,48.6,29.98,WNW,300,2.0,4.0,98,0.00,,,0.00,Wunderground v.1.15,2013-01-26 12:04:00,
2013-01-26 04:09:00,49.5,49.2,29.98,WNW,300,2.0,4.0,99,0.00,,,0.00,Wunderground v.1.15,2013-01-26 12:09:00,
2013-01-26 04:15:00,49.8,49.5,29.98,WNW,300,2.0,4.0,99,0.00,,,0.00,Wunderground v.1.15,2013-01-26 12:15:00,
2013-01-26 04:21:00,49.7,49.4,29.98,WNW,300,1.0,4.0,99,0.00,,,0.00,Wunderground v.1.15,2013-01-26 12:21:00,
2013-01-26 04:26:00,49.9,49.6,29.98,WNW,300,1.0,4.0,99,0.00,,,0.00,Wunderground v.1.15,2013-01-26 12:26:00,
2013-01-26 04:31:00,50.2,49.9,29.98,WNW,300,0.0,4.0,99,0.00,,,0.00,Wunderground v.1.15,2013-01-26 12:31:00,
2013-01-26 04:37:00,50.4,50.1,29.98,WNW,300,0.0,4.0,99,0.00,,,0.00,Wunderground v.1.15,2013-01-26 12:37:00,
2013-01-26 04:42:00,50.4,50.1,29.98,WNW,300,0.0,4.0,99,0.00,,,0.00,Wunderground v.1.15,2013-01-26 12:42:00,
2013-01-26 04:47:00,50.3,50.0,29.98,WNW,298,0.0,4.0,99,0.00,,,0.00,Wunderground v.1.15,2013-01-26 12:47:00,
2013-01-26 04:52:00,49.4,48.9,29.98,WNW,290,0.0,4.0,98,0.00,,,0.00,Wunderground v.1.15,2013-01-26 12:52:00,
2013-01-26 04:58:00,49.0,48.5,29.98,WNW,290,1.0,4.0,98,0.00,,,0.00,Wunderground v.1.15,2013-01-26 12:58:00,
2013-01-26 05:03:00,48.9,48.4,29.98,WNW,290,1.0,4.0,98,0.00,,,0.00,Wunderground v.1.15,2013-01-26 13:03:00,
2013-01-26 05:08:00,48.7,48.2,29.98,WNW,290,0.0,4.0,98,0.00,,,0.00,Wunderground v.1.15,2013-01-26 13:08:00,
2013-01-26 05:14:00,48.6,48.1,29.98,WNW,290,0.0,4.0,98,0.00,,,0.00,Wunderground v.1.15,2013-01-26 13:14:00,
2013-01-26 05:20:00,48.6,48.3,29.98,WNW,290,0.0,4.0,99,0.00,,,0.00,Wunderground v.1.15,2013-01-26 13:20:00,
2013-01-26 05:25:00,48.7,48.4,29.98,WNW,290,0.0,4.0,99,0.00,,,0.00,Wunderground v.1.15,2013-01-26 13:25:00,
2013-01-26 05:31:00,48.9,48.6,29.98,WNW,290,0.0,4.0,99,0.00,,,0.00,Wunderground v.1.15,2013-01-26 13:31:00,
2013-01-26 05:36:00,49.1,48.8,29.98,WNW,290,0.0,4.0,99,0.00,,,0.00,Wunderground v.1.15,2013-01-26 13:36:00,
2013-01-26 05:42:00,48.8,48.3,29.98,WNW,289,0.0,4.0,98,0.00,,,0.00,Wunderground v.1.15,2013-01-26 13:42:00,
2013-01-26 05:48:00,48.7,48.4,29.98,WNW,288,0.0,4.0,99,0.00,,,0.00,Wunderground v.1.15,2013-01-26 13:48:00,
2013-01-26 05:54:00,48.6,48.3,29.98,WNW,289,0.0,4.0,99,0.00,,,0.00,Wunderground v.1.15,2013-01-26 13:54:00,
2013-01-26 05:59:00,48.5,48.2,29.98,WNW,289,0.0,4.0,99,0.00,,,0.00,Wunderground v.1.15,2013-01-26 13:59:00,
2013-01-26 06:05:00,48.7,48.4,29.98,WNW,289,0.0,4.0,99,0.00,,,0.00,Wunderground v.1.15,2013-01-26 14:05:00,
2013-01-26 06:11:00,48.6,48.3,29.99,WNW,288,0.0,4.0,99,0.00,,,0.00,Wunderground v.1.15,2013-01-26 14:11:00,
2013-01-26 06:16:00,48.8,48.5,29.99,WNW,289,0.0,4.0,99,0.00,,,0.00,Wunderground v.1.15,2013-01-26 14:16:00,
2013-01-26 06:22:00,49.0,48.7,29.98,WNW,288,0.0,4.0,99,0.00,,,0.00,Wunderground v.1.15,2013-01-26 14:22:00,
2013-01-26 06:29:00,49.3,49.0,29.98,WNW,289,0.0,4.0,99,0.00,,,0.00,Wunderground v.1.15,2013-01-26 14:29:00,
2013-01-26 06:34:00,49.3,49.0,29.98,WNW,288,0.0,4.0,99,0.00,,,0.00,Wunderground v.1.15,2013-01-26 14:34:00,
2013-01-26 06:39:00,49.3,49.0,29.99,WNW,289,0.0,4.0,99,0.00,,,0.00,Wunderground v.1.15,2013-01-26 14:39:00,
2013-01-26 06:45:00,49.2,48.9,29.99,WNW,289,0.0,4.0,99,0.00,,,0.00,Wunderground v.1.15,2013-01-26 14:45:00,
2013-01-26 06:51:00,49.2,48.9,29.99,WNW,289,0.0,4.0,99,0.00,,,0.00,Wunderground v.1.15,2013-01-26 14:51:00,
2013-01-26 06:57:00,48.9,48.6,29.99,WNW,288,0.0,4.0,99,0.00,,,0.00,Wunderground v.1.15,2013-01-26 14:57:00,
2013-01-26 07:04:00,48.7,48.2,29.99,WNW,289,0.0,4.0,98,0.00,,,0.00,Wunderground v.1.15,2013-01-26 15:04:00,
2013-01-26 07:09:00,48.6,48.3,29.99,WNW,288,0.0,4.0,99,0.00,,,0.00,Wunderground v.1.15,2013-01-26 15:09:00,
2013-01-26 07:15:00,48.4,48.1,29.99,WNW,289,0.0,4.0,99,0.00,,,0.00,Wunderground v.1.15,2013-01-26 15:15:00,
2013-01-26 07:21:00,48.3,48.0,29.99,WNW,289,0.0,4.0,99,0.00,,,0.00,Wunderground v.1.15,2013-01-26 15:21:00,
2013-01-26 07:26:00,47.9,47.6,29.99,WNW,288,0.0,4.0,99,0.00,,,0.00,Wunderground v.1.15,2013-01-26 15:26:00,
2013-01-26 07:31:00,48.0,47.7,29.99,WNW,289,0.0,4.0,99,0.00,,,0.00,Wunderground v.1.15,2013-01-26 15:31:00,
2013-01-26 07:36:00,47.9,47.6,29.99,WNW,288,0.0,4.0,99,0.00,,,0.00,Wunderground v.1.15,2013-01-26 15:36:00,
2013-01-26 07:42:00,47.9,47.6,29.99,WNW,289,0.0,4.0,99,0.00,,,0.00,Wunderground v.1.15,2013-01-26 15:42:00,
2013-01-26 07:47:00,48.3,48.0,29.99,WNW,290,0.0,4.0,99,0.00,,,0.00,Wunderground v.1.15,2013-01-26 15:47:00,
2013-01-26 07:53:00,48.5,48.2,30.00,WNW,290,0.0,4.0,99,0.00,,,0.00,Wunderground v.1.15,2013-01-26 15:53:00,
2013-01-26 07:59:00,48.7,48.4,29.99,WNW,290,0.0,4.0,99,0.00,,,0.00,Wunderground v.1.15,2013-01-26 15:59:00,
2013-01-26 08:04:00,48.9,48.6,29.99,WNW,290,0.0,4.0,99,0.00,,,0.00,Wunderground v.1.15,2013-01-26 16:04:00,
2013-01-26 08:09:00,49.2,48.9,29.99,WNW,290,0.0,4.0,99,0.00,,,0.00,Wunderground v.1.15,2013-01-26 16:09:00,
2013-01-26 08:14:00,49.5,49.2,29.99,WNW,290,0.0,4.0,99,0.00,,,0.00,Wunderground v.1.15,2013-01-26 16:14:00,
2013-01-26 08:19:00,49.9,49.6,30.00,WNW,290,0.0,4.0,99,0.00,,,0.00,Wunderground v.1.15,2013-01-26 16:19:00,
2013-01-26 08:25:00,50.1,49.8,29.99,WNW,290,0.0,4.0,99,0.00,,,0.00,Wunderground v.1.15,2013-01-26 16:25:00,
2013-01-26 08:31:00,50.4,50.1,29.99,WNW,301,1.0,4.0,99,0.00,,,0.00,Wunderground v.1.15,2013-01-26 16:31:00,
2013-01-26 08:36:00,50.9,50.6,29.99,WNW,301,1.0,4.0,99,0.00,,,0.00,Wunderground v.1.15,2013-01-26 16:36:00,
2013-01-26 08:42:00,51.7,51.4,29.99,WNW,301,0.0,4.0,99,0.00,,,0.00,Wunderground v.1.15,2013-01-26 16:42:00,
2013-01-26 08:47:00,52.6,52.3,29.99,WNW,301,0.0,4.0,99,0.00,,,0.01,Wunderground v.1.15,2013-01-26 16:47:00,
2013-01-26 08:52:00,52.9,52.9,29.99,WNW,301,0.0,4.0,100,0.00,,,0.01,Wunderground v.1.15,2013-01-26 16:52:00,
2013-01-26 08:58:00,52.9,52.6,29.99,WSW,243,0.0,4.0,99,0.00,,,0.01,Wunderground v.1.15,2013-01-26 16:58:00,
2013-01-26 09:03:00,52.7,52.4,30.00,SW,226,1.0,4.0,99,0.00,,,0.01,Wunderground v.1.15,2013-01-26 17:03:00,
2013-01-26 09:09:00,52.2,51.7,30.00,South,179,2.0,4.0,98,0.00,,,0.01,Wunderground v.1.15,2013-01-26 17:09:00,
2013-01-26 09:14:00,51.8,51.3,30.00,WSW,246,3.0,4.0,98,0.00,,,0.01,Wunderground v.1.15,2013-01-26 17:14:00,
2013-01-26 09:19:00,51.6,51.1,30.00,SSW,212,2.0,4.0,98,0.00,,,0.01,Wunderground v.1.15,2013-01-26 17:19:00,
2013-01-26 09:24:00,51.5,51.0,30.00,South,190,2.0,5.0,98,0.00,,,0.01,Wunderground v.1.15,2013-01-26 17:24:00,
2013-01-26 09:30:00,51.4,50.9,30.00,SSW,193,2.0,4.0,98,0.00,,,0.01,Wunderground v.1.15,2013-01-26 17:30:00,
2013-01-26 09:36:00,51.5,51.2,30.00,SW,231,2.0,4.0,99,0.00,,,0.01,Wunderground v.1.15,2013-01-26 17:36:00,
2013-01-26 09:41:00,51.7,51.4,30.00,SSE,164,2.0,4.0,99,0.00,,,0.01,Wunderground v.1.15,2013-01-26 17:41:00,
2013-01-26 09:46:00,52.0,51.7,30.00,SSW,210,1.0,4.0,99,0.00,,,0.01,Wunderground v.1.15,2013-01-26 17:46:00,
2013-01-26 09:52:00,52.3,51.8,30.00,SW,230,1.0,4.0,98,0.00,,,0.01,Wunderground v.1.15,2013-01-26 17:52:00,
2013-01-26 09:58:00,53.4,53.1,30.00,SE,136,1.0,4.0,99,0.00,,,0.01,Wunderground v.1.15,2013-01-26 17:58:00,
2013-01-26 10:04:00,53.7,53.4,30.00,SW,214,1.0,4.0,99,0.00,,,0.01,Wunderground v.1.15,2013-01-26 18:04:00,
2013-01-26 10:09:00,53.9,53.3,30.00,SSW,210,1.0,4.0,98,0.00,,,0.01,Wunderground v.1.15,2013-01-26 18:09:00,
2013-01-26 10:15:00,53.8,52.4,30.01,SSW,195,2.0,5.0,95,0.00,,,0.01,Wunderground v.1.15,2013-01-26 18:15:00,
2013-01-26 10:20:00,53.7,52.3,30.01,SSE,159,3.0,4.0,95,0.00,,,0.01,Wunderground v.1.15,2013-01-26 18:20:00,
2013-01-26 10:25:00,53.9,52.2,30.01,South,170,3.0,4.0,94,0.00,,,0.01,Wunderground v.1.15,2013-01-26 18:25:00,
2013-01-26 10:31:00,54.3,52.3,30.01,South,176,3.0,4.0,93,0.00,,,0.01,Wunderground v.1.15,2013-01-26 18:31:00,
2013-01-26 10:37:00,54.7,52.4,30.01,SSW,205,3.0,5.0,92,0.00,,,0.01,Wunderground v.1.15,2013-01-26 18:37:00,
2013-01-26 10:43:00,54.7,52.1,30.00,SSW,208,4.0,6.0,91,0.00,,,0.01,Wunderground v.1.15,2013-01-26 18:43:00,
2013-01-26 10:49:00,54.7,52.1,30.00,SSW,205,4.0,6.0,91,0.00,,,0.01,Wunderground v.1.15,2013-01-26 18:49:00,
2013-01-26 10:54:00,55.2,52.6,30.00,SSE,160,3.0,4.0,91,0.00,,,0.01,Wunderground v.1.15,2013-01-26 18:54:00,
2013-01-26 10:59:00,55.5,52.3,30.00,SSW,202,2.0,6.0,89,0.00,,,0.01,Wunderground v.1.15,2013-01-26 18:59:00,
2013-01-26 11:04:00,55.7,52.2,30.00,SW,229,3.0,5.0,88,0.00,,,0.01,Wunderground v.1.15,2013-01-26 19:04:00,
2013-01-26 11:09:00,55.9,52.4,30.00,SW,217,4.0,6.0,88,0.00,,,0.01,Wunderground v.1.15,2013-01-26 19:09:00,
2013-01-26 11:15:00,56.3,52.2,30.00,South,189,4.0,7.0,86,0.00,,,0.01,Wunderground v.1.15,2013-01-26 19:15:00,
2013-01-26 11:21:00,56.8,52.3,30.00,SW,227,4.0,6.0,85,0.00,,,0.01,Wunderground v.1.15,2013-01-26 19:21:00,
2013-01-26 11:26:00,56.9,52.1,30.00,South,190,4.0,7.0,84,0.00,,,0.01,Wunderground v.1.15,2013-01-26 19:26:00,
2013-01-26 11:32:00,57.3,51.9,29.99,SW,217,4.0,4.0,82,0.00,,,0.01,Wunderground v.1.15,2013-01-26 19:32:00,
2013-01-26 11:37:00,57.5,51.7,29.99,South,186,4.0,6.0,81,0.00,,,0.01,Wunderground v.1.15,2013-01-26 19:37:00,
2013-01-26 11:43:00,58.0,51.9,29.99,SSW,207,4.0,5.0,80,0.00,,,0.01,Wunderground v.1.15,2013-01-26 19:43:00,
2013-01-26 11:49:00,58.4,51.6,29.99,SW,221,4.0,7.0,78,0.00,,,0.01,Wunderground v.1.15,2013-01-26 19:49:00,
2013-01-26 11:54:00,58.8,51.6,29.98,WNW,293,5.0,7.0,77,0.00,,,0.01,Wunderground v.1.15,2013-01-26 19:54:00,
2013-01-26 11:59:00,59.7,51.0,29.98,SW,226,5.0,10.0,73,0.00,,,0.01,Wunderground v.1.15,2013-01-26 19:59:00,
2013-01-26 12:04:00,59.8,50.4,29.98,WSW,250,5.0,6.0,71,0.00,,,0.01,Wunderground v.1.15,2013-01-26 20:04:00,
2013-01-26 12:10:00,60.0,50.6,29.98,WSW,248,5.0,5.0,71,0.00,,,0.01,Wunderground v.1.15,2013-01-26 20:10:00,
2013-01-26 12:15:00,60.0,49.4,29.98,SW,230,4.0,6.0,68,0.00,,,0.01,Wunderground v.1.15,2013-01-26 20:15:00,
2013-01-26 12:20:00,60.2,49.6,29.97,SW,229,4.0,4.0,68,0.00,,,0.01,Wunderground v.1.15,2013-01-26 20:20:00,
2013-01-26 12:25:00,59.9,48.5,29.97,WNW,283,4.0,7.0,66,0.00,,,0.01,Wunderground v.1.15,2013-01-26 20:25:00,
2013-01-26 12:30:00,59.5,47.7,29.97,WNW,284,5.0,9.0,65,0.00,,,0.01,Wunderground v.1.15,2013-01-26 20:30:00,
2013-01-26 12:36:00,59.5,47.7,29.97,NNW,346,5.0,9.0,65,0.00,,,0.01,Wunderground v.1.15,2013-01-26 20:36:00,
2013-01-26 12:41:00,59.6,47.0,29.97,SSE,158,4.0,5.0,63,0.00,,,0.01,Wunderground v.1.15,2013-01-26 20:41:00,
2013-01-26 12:46:00,60.2,45.8,29.97,WSW,243,3.0,7.0,59,0.00,,,0.01,Wunderground v.1.15,2013-01-26 20:46:00,
2013-01-26 12:51:00,60.2,45.8,29.96,SW,236,3.0,4.0,59,0.00,,,0.01,Wunderground v.1.15,2013-01-26 20:51:00,
2013-01-26 12:56:00,59.6,44.3,29.97,NNE,15,5.0,9.0,57,0.00,,,0.01,Wunderground v.1.15,2013-01-26 20:56:00,
2013-01-26 13:02:00,58.8,44.9,29.96,WNW,300,6.0,9.0,60,0.00,,,0.01,Wunderground v.1.15,2013-01-26 21:02:00,
2013-01-26 13:08:00,59.0,44.7,29.96,NE,42,5.0,9.0,59,0.00,,,0.01,Wunderground v.1.15,2013-01-26 21:08:00,
2013-01-26 13:13:00,58.6,44.3,29.96,NNW,343,6.0,6.0,59,0.00,,,0.01,Wunderground v.1.15,2013-01-26 21:13:00,
2013-01-26 13:18:00,59.2,44.4,29.96,SSE,162,5.0,6.0,58,0.00,,,0.01,Wunderground v.1.15,2013-01-26 21:18:00,
2013-01-26 13:24:00,59.3,44.1,29.96,SW,233,4.0,6.0,57,0.00,,,0.01,Wunderground v.1.15,2013-01-26 21:24:00,
2013-01-26 13:29:00,59.5,43.8,29.96,SW,223,4.0,8.0,56,0.00,,,0.01,Wunderground v.1.15,2013-01-26 21:29:00,
2013-01-26 13:35:00,59.8,43.1,29.96,SW,223,4.0,7.0,54,0.00,,,0.01,Wunderground v.1.15,2013-01-26 21:35:00,
2013-01-26 13:40:00,60.3,43.1,29.96,NNW,335,4.0,5.0,53,0.00,,,0.01,Wunderground v.1.15,2013-01-26 21:40:00,
2013-01-26 13:46:00,60.0,43.3,29.96,SW,217,4.0,7.0,54,0.00,,,0.01,Wunderground v.1.15,2013-01-26 21:46:00,
2013-01-26 13:52:00,60.2,44.0,29.96,NNW,327,4.0,4.0,55,0.00,,,0.01,Wunderground v.1.15,2013-01-26 21:52:00,
2013-01-26 13:57:00,60.2,43.5,29.96,SE,141,3.0,4.0,54,0.00,,,0.01,Wunderground v.1.15,2013-01-26 21:57:00,
2013-01-26 14:02:00,60.5,43.8,29.96,WSW,246,3.0,12.0,54,0.00,,,0.01,Wunderground v.1.15,2013-01-26 22:02:00,
2013-01-26 14:09:00,60.1,43.9,29.96,ENE,58,4.0,12.0,55,0.00,,,0.01,Wunderground v.1.15,2013-01-26 22:09:00,
2013-01-26 14:14:00,59.8,44.1,29.96,ENE,63,5.0,10.0,56,0.00,,,0.01,Wunderground v.1.15,2013-01-26 22:14:00,
2013-01-26 14:20:00,59.7,42.5,29.96,NW,304,5.0,5.0,53,0.00,,,0.01,Wunderground v.1.15,2013-01-26 22:20:00,
2013-01-26 14:25:00,59.3,42.2,29.96,NE,36,5.0,7.0,53,0.00,,,0.01,Wunderground v.1.15,2013-01-26 22:25:00,
2013-01-26 14:30:00,59.2,42.6,29.96,SW,233,5.0,5.0,54,0.00,,,0.01,Wunderground v.1.15,2013-01-26 22:30:00,
2013-01-26 14:36:00,59.3,42.6,29.96,WNW,285,5.0,14.0,54,0.00,,,0.01,Wunderground v.1.15,2013-01-26 22:36:00,
2013-01-26 14:42:00,59.3,42.2,29.96,NNW,327,5.0,5.0,53,0.00,,,0.01,Wunderground v.1.15,2013-01-26 22:42:00,
2013-01-26 14:47:00,58.9,42.3,29.97,NW,313,5.0,5.0,54,0.00,,,0.01,Wunderground v.1.15,2013-01-26 22:47:00,
2013-01-26 14:52:00,58.6,42.5,29.97,SSW,207,5.0,8.0,55,0.00,,,0.01,Wunderground v.1.15,2013-01-26 22:52:00,
2013-01-26 14:57:00,58.7,42.6,29.97,NW,321,6.0,8.0,55,0.00,,,0.01,Wunderground v.1.15,2013-01-26 22:57:00,
2013-01-26 15:02:00,58.9,42.8,29.97,NNW,345,6.0,7.0,55,0.00,,,0.01,Wunderground v.1.15,2013-01-26 23:02:00,
2013-01-26 15:07:00,58.5,42.4,29.97,WSW,243,5.0,7.0,55,0.00,,,0.01,Wunderground v.1.15,2013-01-26 23:07:00,
2013-01-26 15:13:00,57.9,42.3,29.97,NW,321,6.0,11.0,56,0.00,,,0.01,Wunderground v.1.15,2013-01-26 23:13:00,
2013-01-26 15:19:00,58.1,42.5,29.97,NNW,343,6.0,11.0,56,0.00,,,0.01,Wunderground v.1.15,2013-01-26 23:19:00,
2013-01-26 15:24:00,57.6,42.0,29.97,WNW,291,5.0,12.0,56,0.00,,,0.01,Wunderground v.1.15,2013-01-26 23:24:00,
2013-01-26 15:29:00,57.9,42.8,29.97,SW,214,5.0,12.0,57,0.00,,,0.01,Wunderground v.1.15,2013-01-26 23:29:00,
2013-01-26 15:34:00,57.9,42.3,29.97,NNW,345,4.0,7.0,56,0.00,,,0.01,Wunderground v.1.15,2013-01-26 23:34:00,
2013-01-26 15:40:00,57.2,42.1,29.97,NW,326,6.0,6.0,57,0.00,,,0.01,Wunderground v.1.15,2013-01-26 23:40:00,
2013-01-26 15:45:00,57.2,42.5,29.97,West,263,5.0,9.0,58,0.00,,,0.01,Wunderground v.1.15,2013-01-26 23:45:00,
2013-01-26 15:51:00,56.6,42.0,29.97,NW,321,6.0,15.0,58,0.00,,,0.01,Wunderground v.1.15,2013-01-26 23:51:00,
2013-01-26 15:56:00,55.9,41.3,29.97,WNW,284,8.0,15.0,58,0.00,,,0.01,Wunderground v.1.15,2013-01-26 23:56:00,
2013-01-26 16:02:00,55.8,41.2,29.98,NW,323,8.0,8.0,58,0.00,,,0.01,Wunderground v.1.15,2013-01-27 00:02:00,
2013-01-26 16:07:00,55.7,42.0,29.97,West,280,6.0,8.0,60,0.00,,,0.01,Wunderground v.1.15,2013-01-27 00:07:00,
2013-01-26 16:13:00,56.4,42.2,29.97,NNW,330,3.0,5.0,59,0.00,,,0.01,Wunderground v.1.15,2013-01-27 00:13:00,
2013-01-26 16:18:00,55.7,42.0,29.97,SE,129,3.0,10.0,60,0.00,,,0.01,Wunderground v.1.15,2013-01-27 00:18:00,
2013-01-26 16:24:00,55.4,41.7,29.97,NNW,327,4.0,7.0,60,0.00,,,0.01,Wunderground v.1.15,2013-01-27 00:24:00,
2013-01-26 16:29:00,54.9,41.7,29.97,NW,310,5.0,7.0,61,0.00,,,0.01,Wunderground v.1.15,2013-01-27 00:29:00,
2013-01-26 16:34:00,54.8,42.0,29.97,NW,304,4.0,6.0,62,0.00,,,0.01,Wunderground v.1.15,2013-01-27 00:34:00,
2013-01-26 16:39:00,54.4,42.1,29.97,SW,222,4.0,10.0,63,0.00,,,0.01,Wunderground v.1.15,2013-01-27 00:39:00,
2013-01-26 16:45:00,54.4,42.1,29.97,West,263,4.0,4.0,63,0.00,,,0.01,Wunderground v.1.15,2013-01-27 00:45:00,
2013-01-26 16:50:00,54.3,42.4,29.97,WNW,295,3.0,4.0,64,0.00,,,0.01,Wunderground v.1.15,2013-01-27 00:50:00,
2013-01-26 16:56:00,54.0,41.7,29.98,NW,310,4.0,9.0,63,0.00,,,0.01,Wunderground v.1.15,2013-01-27 00:56:00,
2013-01-26 17:01:00,53.8,41.1,29.98,NW,309,4.0,5.0,62,0.00,,,0.01,Wunderground v.1.15,2013-01-27 01:01:00,
2013-01-26 17:06:00,53.3,41.4,29.98,WNW,286,3.0,7.0,64,0.00,,,0.01,Wunderground v.1.15,2013-01-27 01:06:00,
2013-01-26 17:12:00,52.8,41.4,29.98,North,353,4.0,4.0,65,0.00,,,0.01,Wunderground v.1.15,2013-01-27 01:12:00,
2013-01-26 17:17:00,52.4,41.4,29.98,North,356,4.0,4.0,66,0.00,,,0.01,Wunderground v.1.15,2013-01-27 01:17:00,
2013-01-26 17:23:00,52.1,41.5,29.99,NW,324,3.0,4.0,67,0.00,,,0.01,Wunderground v.1.15,2013-01-27 01:23:00,
2013-01-26 17:28:00,51.8,41.6,29.99,NNW,332,3.0,4.0,68,0.00,,,0.01,Wunderground v.1.15,2013-01-27 01:28:00,
2013-01-26 17:34:00,51.6,41.8,29.99,NW,308,4.0,8.0,69,0.00,,,0.01,Wunderground v.1.15,2013-01-27 01:34:00,
2013-01-26 17:39:00,51.4,41.6,29.99,North,352,4.0,8.0,69,0.00,,,0.01,Wunderground v.1.15,2013-01-27 01:39:00,
2013-01-26 17:45:00,51.1,41.7,30.00,NW,321,3.0,4.0,70,0.00,,,0.01,Wunderground v.1.15,2013-01-27 01:45:00,
2013-01-26 17:50:00,51.0,41.6,30.00,WNW,283,3.0,6.0,70,0.00,,,0.01,Wunderground v.1.15,2013-01-27 01:50:00,
2013-01-26 17:56:00,50.7,41.3,30.00,WNW,298,3.0,6.0,70,0.00,,,0.01,Wunderground v.1.15,2013-01-27 01:56:00,
2013-01-26 18:01:00,50.5,41.1,30.00,NW,311,2.0,4.0,70,0.00,,,0.01,Wunderground v.1.15,2013-01-27 02:01:00,
2013-01-26 18:06:00,50.4,41.0,30.00,SW,227,2.0,4.0,70,0.00,,,0.01,Wunderground v.1.15,2013-01-27 02:06:00,
2013-01-26 18:11:00,50.3,40.5,30.00,South,180,3.0,4.0,69,0.00,,,0.01,Wunderground v.1.15,2013-01-27 02:11:00,
2013-01-26 18:16:00,50.2,40.4,30.01,NNE,20,3.0,10.0,69,0.00,,,0.01,Wunderground v.1.15,2013-01-27 02:16:00,
2013-01-26 18:22:00,50.1,40.7,30.01,NE,34,4.0,9.0,70,0.00,,,0.01,Wunderground v.1.15,2013-01-27 02:22:00,
2013-01-26 18:28:00,49.9,40.5,30.01,West,268,3.0,9.0,70,0.00,,,0.01,Wunderground v.1.15,2013-01-27 02:28:00,
2013-01-26 18:34:00,49.8,40.8,30.01,WSW,246,2.0,4.0,71,0.00,,,0.01,Wunderground v.1.15,2013-01-27 02:34:00,
2013-01-26 18:40:00,49.5,40.5,30.01,NW,321,2.0,4.0,71,0.00,,,0.01,Wunderground v.1.15,2013-01-27 02:40:00,
2013-01-26 18:45:00,49.3,40.7,30.01,SW,226,2.0,4.0,72,0.00,,,0.01,Wunderground v.1.15,2013-01-27 02:45:00,
2013-01-26 18:51:00,49.0,40.7,30.01,SSW,203,2.0,4.0,73,0.00,,,0.01,Wunderground v.1.15,2013-01-27 02:51:00,
2013-01-26 18:56:00,48.9,40.6,30.02,NE,48,2.0,6.0,73,0.00,,,0.01,Wunderground v.1.15,2013-01-27 02:56:00,
2013-01-26 19:02:00,48.8,40.9,30.02,WNW,298,3.0,6.0,74,0.00,,,0.01,Wunderground v.1.15,2013-01-27 03:02:00,
2013-01-26 19:08:00,48.7,40.8,30.02,NE,35,3.0,6.0,74,0.00,,,0.01,Wunderground v.1.15,2013-01-27 03:08:00,
2013-01-26 19:13:00,48.6,40.7,30.02,SW,228,3.0,4.0,74,0.00,,,0.01,Wunderground v.1.15,2013-01-27 03:13:00,
2013-01-26 19:18:00,48.4,40.5,30.02,West,262,2.0,4.0,74,0.00,,,0.01,Wunderground v.1.15,2013-01-27 03:18:00,
2013-01-26 19:24:00,48.3,40.7,30.02,SW,216,2.0,4.0,75,0.00,,,0.01,Wunderground v.1.15,2013-01-27 03:24:00,
2013-01-26 19:30:00,48.1,40.5,30.03,West,259,2.0,4.0,75,0.00,,,0.01,Wunderground v.1.15,2013-01-27 03:30:00,
2013-01-26 19:35:00,48.0,40.5,30.03,NNW,331,2.0,4.0,75,0.00,,,0.01,Wunderground v.1.15,2013-01-27 03:35:00,
2013-01-26 19:40:00,48.0,40.1,30.03,NNW,336,2.0,4.0,74,0.00,,,0.01,Wunderground v.1.15,2013-01-27 03:40:00,
2013-01-26 19:45:00,48.0,40.5,30.03,ENE,73,2.0,4.0,75,0.00,,,0.01,Wunderground v.1.15,2013-01-27 03:45:00,
2013-01-26 19:51:00,47.9,40.4,30.03,WNW,291,2.0,4.0,75,0.00,,,0.01,Wunderground v.1.15,2013-01-27 03:51:00,
2013-01-26 19:56:00,48.0,40.5,30.03,NNE,13,3.0,8.0,75,0.00,,,0.01,Wunderground v.1.15,2013-01-27 03:56:00,
2013-01-26 20:01:00,48.0,40.1,30.03,North,9,4.0,4.0,74,0.00,,,0.01,Wunderground v.1.15,2013-01-27 04:01:00,
2013-01-26 20:07:00,48.1,40.2,30.04,NW,309,3.0,10.0,74,0.00,,,0.01,Wunderground v.1.15,2013-01-27 04:07:00,
2013-01-26 20:13:00,48.0,40.1,30.04,SW,227,3.0,6.0,74,0.00,,,0.01,Wunderground v.1.15,2013-01-27 04:13:00,
2013-01-26 20:19:00,47.8,40.3,30.04,WNW,283,2.0,6.0,75,0.00,,,0.01,Wunderground v.1.15,2013-01-27 04:19:00,
2013-01-26 20:25:00,47.6,40.1,30.04,West,264,1.0,4.0,75,0.00,,,0.01,Wunderground v.1.15,2013-01-27 04:25:00,
2013-01-26 20:31:00,47.4,39.9,30.04,SW,236,1.0,4.0,75,0.00,,,0.01,Wunderground v.1.15,2013-01-27 04:31:00,
2013-01-26 20:36:00,47.2,40.0,30.04,WNW,285,1.0,4.0,76,0.00,,,0.01,Wunderground v.1.15,2013-01-27 04:36:00,
2013-01-26 20:42:00,46.8,39.6,30.04,West,266,0.0,4.0,76,0.00,,,0.01,Wunderground v.1.15,2013-01-27 04:42:00,
2013-01-26 20:47:00,46.5,39.7,30.04,WSW,246,0.0,4.0,77,0.00,,,0.01,Wunderground v.1.15,2013-01-27 04:47:00,
2013-01-26 20:53:00,46.2,39.7,30.04,WSW,246,0.0,4.0,78,0.00,,,0.01,Wunderground v.1.15,2013-01-27 04:53:00,
2013-01-26 20:58:00,46.1,39.6,30.04,WSW,246,0.0,4.0,78,0.00,,,0.01,Wunderground v.1.15,2013-01-27 04:58:00,
2013-01-26 21:00:00,46.0,39.9,30.05,WSW,247,0.0,4.0,79,0.00,,,0.01,Wunderground v.1.15,2013-01-27 05:00:00,
2013-01-26 21:01:00,46.0,39.9,30.05,WNW,286,0.0,4.0,79,0.00,,,0.01,Wunderground v.1.15,2013-01-27 05:01:00,
2013-01-26 21:05:00,45.9,40.1,30.05,WNW,288,1.0,4.0,80,0.00,,,0.01,Wunderground v.1.15,2013-01-27 05:05:00,
2013-01-26 21:06:00,45.9,39.8,30.05,WNW,289,1.0,4.0,79,0.00,,,0.01,Wunderground v.1.15,2013-01-27 05:06:00,
2013-01-26 21:12:00,45.9,40.1,30.05,SSW,210,1.0,4.0,80,0.00,,,0.01,Wunderground v.1.15,2013-01-27 05:12:00,
2013-01-26 21:17:00,46.0,40.5,30.05,North,350,1.0,4.0,81,0.00,,,0.01,Wunderground v.1.15,2013-01-27 05:17:00,
2013-01-26 21:24:00,46.1,40.3,30.05,SSW,212,1.0,4.0,80,0.00,,,0.01,Wunderground v.1.15,2013-01-27 05:24:00,
2013-01-26 21:29:00,45.9,40.1,30.05,NW,326,1.0,4.0,80,0.00,,,0.01,Wunderground v.1.15,2013-01-27 05:29:00,
2013-01-26 21:35:00,45.8,40.0,30.05,WSW,250,1.0,4.0,80,0.00,,,0.01,Wunderground v.1.15,2013-01-27 05:35:00,
2013-01-26 21:40:00,45.6,39.8,30.05,SW,224,0.0,4.0,80,0.00,,,0.01,Wunderground v.1.15,2013-01-27 05:40:00,
2013-01-26 21:45:00,45.4,39.9,30.05,SW,224,0.0,4.0,81,0.00,,,0.01,Wunderground v.1.15,2013-01-27 05:45:00,
2013-01-26 21:51:00,45.5,40.0,30.05,WSW,238,1.0,4.0,81,0.00,,,0.01,Wunderground v.1.15,2013-01-27 05:51:00,
2013-01-26 21:56:00,45.3,39.8,30.05,WSW,248,1.0,4.0,81,0.00,,,0.01,Wunderground v.1.15,2013-01-27 05:56:00,
2013-01-26 22:01:00,45.4,39.9,30.05,WSW,246,0.0,4.0,81,0.00,,,0.01,Wunderground v.1.15,2013-01-27 06:01:00,
2013-01-26 22:07:00,45.5,40.0,30.06,West,280,1.0,4.0,81,0.00,,,0.01,Wunderground v.1.15,2013-01-27 06:07:00,
2013-01-26 22:12:00,45.5,40.0,30.06,West,280,1.0,4.0,81,0.00,,,0.01,Wunderground v.1.15,2013-01-27 06:12:00,
2013-01-26 22:18:00,45.3,39.8,30.06,West,264,1.0,4.0,81,0.00,,,0.01,Wunderground v.1.15,2013-01-27 06:18:00,
2013-01-26 22:24:00,45.0,39.5,30.06,West,264,0.0,4.0,81,0.00,,,0.01,Wunderground v.1.15,2013-01-27 06:24:00,
2013-01-26 22:30:00,44.8,39.6,30.06,NW,316,1.0,4.0,82,0.00,,,0.01,Wunderground v.1.15,2013-01-27 06:30:00,
2013-01-26 22:36:00,45.1,39.9,30.06,NW,312,1.0,4.0,82,0.00,,,0.01,Wunderground v.1.15,2013-01-27 06:36:00,
2013-01-26 22:42:00,45.3,39.8,30.06,West,278,1.0,4.0,81,0.00,,,0.01,Wunderground v.1.15,2013-01-27 06:42:00,
2013-01-26 22:47:00,45.2,39.7,30.06,West,278,1.0,4.0,81,0.00,,,0.01,Wunderground v.1.15,2013-01-27 06:47:00,
2013-01-26 22:53:00,45.1,39.6,30.06,West,271,0.0,4.0,81,0.00,,,0.01,Wunderground v.1.15,2013-01-27 06:53:00,
2013-01-26 22:58:00,44.6,39.4,30.07,West,271,0.0,4.0,82,0.00,,,0.01,Wunderground v.1.15,2013-01-27 06:58:00,
2013-01-26 23:04:00,44.3,39.5,30.07,West,272,0.0,4.0,83,0.00,,,0.01,Wunderground v.1.15,2013-01-27 07:04:00,
2013-01-26 23:13:00,43.8,39.0,30.07,West,271,0.0,4.0,83,0.00,,,0.01,Wunderground v.1.15,2013-01-27 07:13:00,
2013-01-26 23:19:00,43.2,38.4,30.07,West,271,0.0,4.0,83,0.00,,,0.01,Wunderground v.1.15,2013-01-27 07:19:00,
2013-01-26 23:24:00,42.8,38.6,30.07,West,272,0.0,4.0,85,0.00,,,0.01,Wunderground v.1.15,2013-01-27 07:24:00,
2013-01-26 23:29:00,42.7,38.5,30.07,West,272,0.0,4.0,85,0.00,,,0.01,Wunderground v.1.15,2013-01-27 07:29:00,
2013-01-26 23:35:00,42.3,38.4,30.07,West,272,0.0,4.0,86,0.00,,,0.01,Wunderground v.1.15,2013-01-27 07:35:00,
2013-01-26 23:41:00,42.1,38.5,30.07,West,272,0.0,4.0,87,0.00,,,0.01,Wunderground v.1.15,2013-01-27 07:41:00,
2013-01-26 23:46:00,41.9,38.6,30.07,West,272,1.0,4.0,88,0.00,,,0.01,Wunderground v.1.15,2013-01-27 07:46:00,
2013-01-26 23:51:00,41.8,38.5,30.07,West,272,0.0,4.0,88,0.00,,,0.01,Wunderground v.1.15,2013-01-27 07:51:00,
2013-01-26 23:57:00,41.6,38.6,30.07,West,272,0.0,4.0,89,0.00,,,0.01,Wunderground v.1.15,2013-01-27 07:57:00,